{"data":{"norad_id":66394,"epoch":"2026-05-24T17:02:08.406528Z","epoch_age_seconds":103667,"freshness":"FRESH","line1":"1 66394U 25257Q   26144.70981952  .00014329  00000+0  43442-3 0  9995","line2":"2 66394  53.1585 223.1296 0001144  82.7974 277.3159 15.34399535 31385","mean_motion":15.34399535,"eccentricity":0.0001144,"inclination_deg":53.1585,"raan_deg":223.1296,"arg_perigee_deg":82.7974,"mean_anomaly_deg":277.3159,"bstar":0.00043442,"rev_number":3138,"period_min":93.847786521911,"perigee_km":461.92203000386,"apogee_km":463.48721456704,"semimajor_km":6840.8416222854,"source":"CELESTRAK","updated_at":"2026-05-25T13:38:21.203235Z"}}